Time,TemperatureF,DewpointF,PressureIn,WindDirection,WindDirectionDegrees,WindSpeedMPH,WindSpeedGustMPH,Humidity,HourlyPrecipIn,Conditions,Clouds,dailyrainin,SoftwareType,DateUTC
2013-04-09 00:03:00,52.0,36.0,29.94,ENE,60,3.0,-999.0,53,-99.99,,,-99.99,,2013-04-09 04:03:00,
2013-04-09 00:13:00,52.0,36.0,29.93,North,0,0.0,-999.0,53,-99.99,,,-99.99,,2013-04-09 04:13:00,
2013-04-09 00:23:00,52.0,36.0,29.92,NNE,30,7.0,-999.0,53,-99.99,,,-99.99,,2013-04-09 04:23:00,
2013-04-09 00:32:00,50.0,36.0,29.92,ENE,60,3.0,-999.0,57,-99.99,,,-99.99,,2013-04-09 04:32:00,
2013-04-09 00:42:00,50.0,37.0,29.91,ENE,70,3.0,-999.0,61,-99.99,,,-99.99,,2013-04-09 04:42:00,
2013-04-09 00:52:00,50.0,37.0,29.91,ENE,70,3.0,-999.0,61,-99.99,,,-99.99,,2013-04-09 04:52:00,
2013-04-09 01:02:00,52.0,36.0,29.91,North,0,0.0,-999.0,53,-99.99,,,-99.99,,2013-04-09 05:02:00,
2013-04-09 01:12:00,52.0,36.0,29.91,North,0,0.0,-999.0,53,-99.99,,,-99.99,,2013-04-09 05:12:00,
2013-04-09 01:22:00,52.0,37.0,29.92,North,350,7.0,-999.0,57,-99.99,,,-99.99,,2013-04-09 05:22:00,
2013-04-09 01:32:00,52.0,39.0,29.92,North,10,3.0,-999.0,61,-99.99,,,-99.99,,2013-04-09 05:32:00,
2013-04-09 01:43:00,52.0,39.0,29.91,North,0,0.0,-999.0,61,-99.99,,,-99.99,,2013-04-09 05:43:00,
2013-04-09 01:52:00,48.0,41.0,29.91,SE,130,5.0,-999.0,76,-99.99,,,-99.99,,2013-04-09 05:52:00,
2013-04-09 02:02:00,48.0,41.0,29.91,SE,130,5.0,-999.0,76,-99.99,,,-99.99,,2013-04-09 06:02:00,
2013-04-09 02:12:00,50.0,45.0,29.86,SSE,150,7.0,-999.0,81,-99.99,,,-99.99,,2013-04-09 06:12:00,
2013-04-09 02:22:00,54.0,45.0,29.86,SSE,160,8.0,-999.0,71,-99.99,,,-99.99,,2013-04-09 06:22:00,
2013-04-09 02:32:00,54.0,45.0,29.86,SSE,160,5.0,-999.0,71,-99.99,,,-99.99,,2013-04-09 06:32:00,
2013-04-09 02:42:00,54.0,45.0,29.85,SSE,160,5.0,-999.0,71,-99.99,,,-99.99,,2013-04-09 06:42:00,
2013-04-09 02:52:00,54.0,43.0,29.84,SE,130,5.0,-999.0,66,-99.99,,,-99.99,,2013-04-09 06:52:00,
2013-04-09 03:02:00,54.0,43.0,29.84,SE,130,5.0,-999.0,66,-99.99,,,-99.99,,2013-04-09 07:02:00,
2013-04-09 03:13:00,55.0,43.0,29.85,South,180,5.0,-999.0,62,-99.99,,,-99.99,,2013-04-09 07:13:00,
2013-04-09 03:22:00,54.0,45.0,29.83,South,170,5.0,-999.0,71,-99.99,,,-99.99,,2013-04-09 07:22:00,
2013-04-09 03:32:00,54.0,45.0,29.83,SE,140,3.0,-999.0,71,-99.99,,,-99.99,,2013-04-09 07:32:00,
2013-04-09 03:42:00,54.0,45.0,29.83,ESE,120,3.0,-999.0,71,-99.99,,,-99.99,,2013-04-09 07:42:00,
2013-04-09 03:52:00,54.0,45.0,29.83,North,0,0.0,-999.0,71,-99.99,,,-99.99,,2013-04-09 07:52:00,
2013-04-09 04:03:00,54.0,45.0,29.83,North,0,0.0,-999.0,71,-99.99,,,-99.99,,2013-04-09 08:03:00,
2013-04-09 04:12:00,54.0,43.0,29.82,SE,140,6.0,-999.0,66,-99.99,,,-99.99,,2013-04-09 08:12:00,
2013-04-09 04:22:00,54.0,45.0,29.82,SSE,150,5.0,-999.0,71,-99.99,,,-99.99,,2013-04-09 08:22:00,
2013-04-09 04:32:00,54.0,45.0,29.82,South,170,7.0,-999.0,71,-99.99,,,-99.99,,2013-04-09 08:32:00,
2013-04-09 04:42:00,54.0,45.0,29.82,South,180,9.0,-999.0,71,-99.99,,,-99.99,,2013-04-09 08:42:00,
2013-04-09 04:52:00,54.0,45.0,29.81,South,180,8.0,-999.0,71,-99.99,,,-99.99,,2013-04-09 08:52:00,
2013-04-09 05:02:00,54.0,45.0,29.81,South,180,8.0,-999.0,71,-99.99,,,-99.99,,2013-04-09 09:02:00,
2013-04-09 05:12:00,54.0,45.0,29.82,South,180,7.0,-999.0,71,-99.99,,,-99.99,,2013-04-09 09:12:00,
2013-04-09 05:22:00,54.0,45.0,29.82,South,190,6.0,-999.0,71,-99.99,,,-99.99,,2013-04-09 09:22:00,
2013-04-09 05:33:00,54.0,45.0,29.82,South,170,7.0,-999.0,71,-99.99,,,-99.99,,2013-04-09 09:33:00,
2013-04-09 05:43:00,54.0,45.0,29.81,South,190,7.0,-999.0,71,-99.99,,,-99.99,,2013-04-09 09:43:00,
2013-04-09 05:52:00,54.0,45.0,29.81,South,190,7.0,-999.0,71,-99.99,,,-99.99,,2013-04-09 09:52:00,
2013-04-09 06:03:00,54.0,45.0,29.81,South,190,7.0,-999.0,71,-99.99,,,-99.99,,2013-04-09 10:03:00,
2013-04-09 06:13:00,54.0,45.0,29.82,SW,220,6.0,-999.0,71,-99.99,,,-99.99,,2013-04-09 10:13:00,
2013-04-09 06:23:00,52.0,45.0,29.84,WNW,290,14.0,-999.0,76,-99.99,,,-99.99,,2013-04-09 10:23:00,
2013-04-09 06:33:00,52.0,45.0,29.84,West,280,6.0,13.0,76,-99.99,,,-99.99,,2013-04-09 10:33:00,
2013-04-09 06:43:00,52.0,45.0,29.85,WSW,250,3.0,-999.0,76,-99.99,,,-99.99,,2013-04-09 10:43:00,
2013-04-09 06:52:00,48.0,45.0,29.85,North,0,0.0,-999.0,87,-99.99,,,-99.99,,2013-04-09 10:52:00,
2013-04-09 07:02:00,48.0,45.0,29.85,North,0,0.0,-999.0,87,-99.99,,,-99.99,,2013-04-09 11:02:00,
2013-04-09 07:12:00,50.0,45.0,29.86,North,0,0.0,-999.0,81,-99.99,,,-99.99,,2013-04-09 11:12:00,
2013-04-09 07:22:00,54.0,45.0,29.87,North,0,0.0,-999.0,71,-99.99,,,-99.99,,2013-04-09 11:22:00,
2013-04-09 07:32:00,54.0,45.0,29.87,SW,220,3.0,-999.0,71,-99.99,,,-99.99,,2013-04-09 11:32:00,
2013-04-09 07:42:00,54.0,45.0,29.87,WSW,240,3.0,-999.0,71,-99.99,,,-99.99,,2013-04-09 11:42:00,
2013-04-09 07:52:00,54.0,46.0,29.88,WSW,250,3.0,-999.0,76,-99.99,,,-99.99,,2013-04-09 11:52:00,
2013-04-09 08:02:00,54.0,46.0,29.88,WSW,250,3.0,-999.0,76,-99.99,,,-99.99,,2013-04-09 12:02:00,
2013-04-09 08:12:00,55.0,46.0,29.88,NW,310,5.0,-999.0,71,-99.99,,,-99.99,,2013-04-09 12:12:00,
2013-04-09 08:22:00,55.0,46.0,29.91,NW,320,6.0,20.0,71,-99.99,,,-99.99,,2013-04-09 12:22:00,
2013-04-09 08:32:00,55.0,46.0,29.91,WNW,290,9.0,17.0,71,-99.99,,,-99.99,,2013-04-09 12:32:00,
2013-04-09 08:42:00,55.0,46.0,29.92,WNW,290,16.0,27.0,71,-99.99,,,-99.99,,2013-04-09 12:42:00,
2013-04-09 08:52:00,55.0,46.0,29.94,West,280,14.0,36.0,71,-99.99,,,-99.99,,2013-04-09 12:52:00,
2013-04-09 09:03:00,55.0,46.0,29.94,West,280,14.0,36.0,71,-99.99,,,-99.99,,2013-04-09 13:03:00,
2013-04-09 09:12:00,54.0,46.0,29.95,WNW,290,10.0,25.0,76,-99.99,,,-99.99,,2013-04-09 13:12:00,
2013-04-09 09:23:00,54.0,46.0,29.97,NW,310,13.0,21.0,76,-99.99,,,-99.99,,2013-04-09 13:23:00,
2013-04-09 09:33:00,52.0,45.0,29.98,West,280,12.0,23.0,76,-99.99,,,-99.99,,2013-04-09 13:33:00,
2013-04-09 09:42:00,52.0,45.0,29.98,WNW,290,13.0,21.0,76,-99.99,,,-99.99,,2013-04-09 13:42:00,
2013-04-09 09:52:00,52.0,45.0,29.99,South,170,13.0,18.0,76,-99.99,,,-99.99,,2013-04-09 13:52:00,
2013-04-09 10:03:00,52.0,45.0,29.99,South,170,13.0,18.0,76,-99.99,,,-99.99,,2013-04-09 14:03:00,
2013-04-09 10:12:00,52.0,45.0,29.99,West,270,13.0,23.0,76,-99.99,,,-99.99,,2013-04-09 14:12:00,
2013-04-09 10:22:00,52.0,43.0,30.01,WNW,290,17.0,28.0,71,-99.99,,,-99.99,,2013-04-09 14:22:00,
2013-04-09 10:32:00,52.0,43.0,30.01,WNW,290,20.0,29.0,71,-99.99,,,-99.99,,2013-04-09 14:32:00,
2013-04-09 10:42:00,52.0,43.0,30.01,WNW,290,14.0,29.0,71,-99.99,,,-99.99,,2013-04-09 14:42:00,
2013-04-09 10:52:00,52.0,43.0,30.01,West,270,21.0,27.0,71,-99.99,,,-99.99,,2013-04-09 14:52:00,
2013-04-09 11:02:00,52.0,43.0,30.01,West,270,21.0,27.0,71,-99.99,,,-99.99,,2013-04-09 15:02:00,
2013-04-09 11:13:00,52.0,43.0,30.02,West,270,27.0,33.0,71,-99.99,,,-99.99,,2013-04-09 15:13:00,
2013-04-09 11:22:00,52.0,43.0,30.02,West,270,21.0,30.0,71,-99.99,,,-99.99,,2013-04-09 15:22:00,
2013-04-09 11:33:00,52.0,43.0,30.03,West,270,20.0,29.0,71,-99.99,,,-99.99,,2013-04-09 15:33:00,
2013-04-09 11:43:00,52.0,43.0,30.04,WNW,290,10.0,25.0,71,-99.99,,,-99.99,,2013-04-09 15:43:00,
2013-04-09 11:53:00,52.0,43.0,30.05,West,280,18.0,29.0,71,-99.99,,,-99.99,,2013-04-09 15:53:00,
2013-04-09 12:03:00,52.0,43.0,30.05,West,280,18.0,29.0,71,-99.99,,,-99.99,,2013-04-09 16:03:00,
2013-04-09 12:13:00,50.0,43.0,30.03,West,280,23.0,29.0,76,-99.99,,,-99.99,,2013-04-09 16:13:00,
2013-04-09 12:23:00,50.0,43.0,30.04,WNW,300,14.0,25.0,76,-99.99,,,-99.99,,2013-04-09 16:23:00,
2013-04-09 12:33:00,50.0,43.0,30.05,West,280,15.0,23.0,76,-99.99,,,-99.99,,2013-04-09 16:33:00,
2013-04-09 12:42:00,48.0,43.0,30.05,WNW,290,10.0,23.0,81,-99.99,,,-99.99,,2013-04-09 16:42:00,
2013-04-09 12:53:00,52.0,43.0,30.05,West,280,17.0,23.0,71,-99.99,,,-99.99,,2013-04-09 16:53:00,
2013-04-09 13:02:00,52.0,43.0,30.05,West,280,17.0,23.0,71,-99.99,,,-99.99,,2013-04-09 17:02:00,
2013-04-09 13:13:00,52.0,41.0,30.06,WNW,300,18.0,23.0,66,-99.99,,,-99.99,,2013-04-09 17:13:00,
2013-04-09 13:23:00,52.0,41.0,30.05,WNW,300,16.0,22.0,66,-99.99,,,-99.99,,2013-04-09 17:23:00,
2013-04-09 13:32:00,54.0,41.0,30.04,WNW,300,21.0,28.0,62,-99.99,,,-99.99,,2013-04-09 17:32:00,
2013-04-09 13:42:00,54.0,41.0,30.04,WNW,300,20.0,28.0,62,-99.99,,,-99.99,,2013-04-09 17:42:00,
2013-04-09 13:53:00,55.0,41.0,30.04,WNW,290,22.0,27.0,58,-99.99,,,-99.99,,2013-04-09 17:53:00,
2013-04-09 14:02:00,55.0,41.0,30.04,WNW,290,22.0,27.0,58,-99.99,,,-99.99,,2013-04-09 18:02:00,
2013-04-09 14:13:00,55.0,41.0,30.04,West,270,23.0,31.0,58,-99.99,,,-99.99,,2013-04-09 18:13:00,
2013-04-09 14:22:00,55.0,41.0,30.04,West,280,23.0,28.0,58,-99.99,,,-99.99,,2013-04-09 18:22:00,
2013-04-09 14:33:00,54.0,39.0,30.04,WNW,300,21.0,31.0,58,-99.99,,,-99.99,,2013-04-09 18:33:00,
2013-04-09 14:43:00,55.0,41.0,30.04,WNW,290,16.0,28.0,58,-99.99,,,-99.99,,2013-04-09 18:43:00,
2013-04-09 14:52:00,55.0,41.0,30.03,West,280,22.0,30.0,58,-99.99,,,-99.99,,2013-04-09 18:52:00,
2013-04-09 15:03:00,55.0,39.0,30.03,West,280,16.0,30.0,54,-99.99,,,-99.99,,2013-04-09 19:03:00,
2013-04-09 15:12:00,55.0,39.0,30.03,West,280,16.0,30.0,54,-99.99,,,-99.99,,2013-04-09 19:12:00,
2013-04-09 15:22:00,55.0,39.0,30.03,West,280,16.0,30.0,54,-99.99,,,-99.99,,2013-04-09 19:22:00,
2013-04-09 15:32:00,55.0,39.0,30.03,WNW,290,14.0,28.0,54,-99.99,,,-99.99,,2013-04-09 19:32:00,
2013-04-09 15:42:00,55.0,39.0,30.03,WNW,290,14.0,28.0,54,-99.99,,,-99.99,,2013-04-09 19:42:00,
2013-04-09 15:53:00,55.0,39.0,30.01,WNW,290,8.0,-999.0,54,-99.99,,,-99.99,,2013-04-09 19:53:00,
2013-04-09 16:02:00,55.0,39.0,30.02,NNW,340,7.0,10.0,54,-99.99,,,-99.99,,2013-04-09 20:02:00,
2013-04-09 16:11:00,55.0,39.0,30.01,NNW,330,10.0,16.0,54,-99.99,,,-99.99,,2013-04-09 20:11:00,
2013-04-09 16:31:00,57.0,39.0,30.01,West,280,13.0,20.0,50,-99.99,,,-99.99,,2013-04-09 20:31:00,
2013-04-09 16:51:00,57.0,39.0,30.01,WNW,290,12.0,18.0,50,-99.99,,,-99.99,,2013-04-09 20:51:00,
2013-04-09 17:02:00,57.0,39.0,30.01,WNW,290,12.0,18.0,50,-99.99,,,-99.99,,2013-04-09 21:02:00,
2013-04-09 17:11:00,57.0,39.0,30.01,NW,320,9.0,16.0,50,-99.99,,,-99.99,,2013-04-09 21:11:00,
2013-04-09 17:21:00,57.0,39.0,30.01,NW,320,9.0,16.0,50,-99.99,,,-99.99,,2013-04-09 21:21:00,
2013-04-09 17:32:00,57.0,39.0,30.02,West,280,12.0,16.0,50,-99.99,,,-99.99,,2013-04-09 21:32:00,
2013-04-09 17:52:00,55.0,39.0,30.01,WNW,300,6.0,-999.0,54,-99.99,,,-99.99,,2013-04-09 21:52:00,
2013-04-09 18:03:00,55.0,39.0,30.01,WNW,300,6.0,-999.0,54,-99.99,,,-99.99,,2013-04-09 22:03:00,
2013-04-09 18:12:00,55.0,39.0,30.01,West,260,7.0,18.0,54,-99.99,,,-99.99,,2013-04-09 22:12:00,
2013-04-09 18:22:00,55.0,39.0,30.01,West,270,9.0,18.0,54,-99.99,,,-99.99,,2013-04-09 22:22:00,
2013-04-09 18:32:00,55.0,39.0,30.00,WNW,290,6.0,-999.0,54,-99.99,,,-99.99,,2013-04-09 22:32:00,
2013-04-09 18:42:00,55.0,39.0,30.00,West,270,7.0,-999.0,54,-99.99,,,-99.99,,2013-04-09 22:42:00,
2013-04-09 18:53:00,55.0,39.0,29.99,NW,310,6.0,-999.0,54,-99.99,,,-99.99,,2013-04-09 22:53:00,
2013-04-09 19:03:00,55.0,39.0,29.99,NW,310,6.0,-999.0,54,-99.99,,,-99.99,,2013-04-09 23:03:00,
2013-04-09 19:12:00,54.0,39.0,30.01,WNW,300,7.0,-999.0,58,-99.99,,,-99.99,,2013-04-09 23:12:00,
2013-04-09 19:23:00,54.0,39.0,30.00,NNW,330,6.0,-999.0,58,-99.99,,,-99.99,,2013-04-09 23:23:00,
2013-04-09 19:32:00,54.0,39.0,30.00,NNE,20,3.0,-999.0,58,-99.99,,,-99.99,,2013-04-09 23:32:00,
2013-04-09 19:42:00,54.0,39.0,30.00,NNW,340,5.0,-999.0,58,-99.99,,,-99.99,,2013-04-09 23:42:00,
2013-04-09 19:52:00,54.0,39.0,30.01,North,360,3.0,-999.0,58,-99.99,,,-99.99,,2013-04-09 23:52:00,
2013-04-09 20:03:00,54.0,39.0,30.01,North,360,3.0,-999.0,58,-99.99,,,-99.99,,2013-04-10 00:03:00,
2013-04-09 20:12:00,54.0,39.0,30.01,North,360,3.0,-999.0,58,-99.99,,,-99.99,,2013-04-10 00:12:00,
2013-04-09 20:23:00,54.0,39.0,30.01,North,360,3.0,-999.0,58,-99.99,,,-99.99,,2013-04-10 00:23:00,
2013-04-09 20:33:00,54.0,39.0,30.01,SSE,150,3.0,-999.0,58,-99.99,,,-99.99,,2013-04-10 00:33:00,
2013-04-09 20:42:00,54.0,39.0,30.01,West,260,5.0,-999.0,58,-99.99,,,-99.99,,2013-04-10 00:42:00,
2013-04-09 20:53:00,54.0,39.0,30.01,North,0,0.0,-999.0,58,-99.99,,,-99.99,,2013-04-10 00:53:00,
2013-04-09 21:02:00,54.0,39.0,30.01,North,0,0.0,-999.0,58,-99.99,,,-99.99,,2013-04-10 01:02:00,
2013-04-09 21:12:00,54.0,39.0,30.01,North,0,0.0,-999.0,58,-99.99,,,-99.99,,2013-04-10 01:12:00,
2013-04-09 21:23:00,52.0,39.0,30.02,North,0,0.0,-999.0,61,-99.99,,,-99.99,,2013-04-10 01:23:00,
2013-04-09 21:32:00,52.0,39.0,30.00,North,0,0.0,-999.0,61,-99.99,,,-99.99,,2013-04-10 01:32:00,
2013-04-09 21:42:00,52.0,39.0,30.01,North,0,0.0,-999.0,61,-99.99,,,-99.99,,2013-04-10 01:42:00,
2013-04-09 21:52:00,52.0,39.0,30.01,East,90,3.0,-999.0,61,-99.99,,,-99.99,,2013-04-10 01:52:00,
2013-04-09 22:02:00,52.0,39.0,30.01,East,90,3.0,-999.0,61,-99.99,,,-99.99,,2013-04-10 02:02:00,
2013-04-09 22:11:00,52.0,39.0,30.00,North,0,0.0,-999.0,61,-99.99,,,-99.99,,2013-04-10 02:11:00,
2013-04-09 22:21:00,52.0,39.0,29.99,North,0,0.0,-999.0,61,-99.99,,,-99.99,,2013-04-10 02:21:00,
2013-04-09 22:31:00,52.0,41.0,29.98,North,0,0.0,-999.0,66,-99.99,,,-99.99,,2013-04-10 02:31:00,
2013-04-09 22:42:00,52.0,41.0,29.97,North,0,0.0,-999.0,66,-99.99,,,-99.99,,2013-04-10 02:42:00,
2013-04-09 22:51:00,52.0,41.0,29.96,North,0,0.0,-999.0,66,-99.99,,,-99.99,,2013-04-10 02:51:00,
2013-04-09 23:03:00,52.0,41.0,29.96,North,0,0.0,-999.0,66,-99.99,,,-99.99,,2013-04-10 03:03:00,
2013-04-09 23:12:00,52.0,41.0,29.96,North,360,3.0,-999.0,66,-99.99,,,-99.99,,2013-04-10 03:12:00,
2013-04-09 23:22:00,52.0,43.0,29.95,North,0,0.0,-999.0,71,-99.99,,,-99.99,,2013-04-10 03:22:00,
2013-04-09 23:33:00,52.0,41.0,29.94,NE,50,3.0,-999.0,66,-99.99,,,-99.99,,2013-04-10 03:33:00,
2013-04-09 23:43:00,50.0,43.0,29.93,East,90,3.0,-999.0,76,-99.99,,,-99.99,,2013-04-10 03:43:00,
2013-04-09 23:52:00,50.0,43.0,29.92,North,0,0.0,-999.0,76,-99.99,,,-99.99,,2013-04-10 03:52:00,